Location: Ch�ze
(42.9000°N, 0.0333°W)
Time: 19:24:44
(UTC+00:00)

Cosmos 1602 Rocket - Pass Details

Date: 24 January 2021
Orbit: 604 x 633 km, 82.5° (Epoch: 08 March)

Event Time Altitude Azimuth Distance (km) Brightness Sun altitude
Rises 17:55:20 0° 166° (SSE) 2,850 7.0 -9.8°
Reaches altitude 10° 17:57:38 10° 158° (SSE) 1,955 6.1 -10.2°
Maximum altitude 18:01:37 37° 91° (E) 959 4.1 -10.9°
Drops below altitude 10° 18:05:39 10° 25° (NNE) 1,985 5.8 -11.6°
Sets 18:08:00 0° 17° (NNE) 2,900 6.7 -12.0°
